TimeAKST,TemperatureF,Dew PointF,Humidity,Sea Level PressureIn,VisibilityMPH,Wind Direction,Wind SpeedMPH,Gust SpeedMPH,PrecipitationIn,Events,Conditions,WindDirDegrees,DateUTC
12:53 AM,10.0,-9.0,42,30.10,10.0,NNE,8.1,-,N/A,,Overcast,30,2013-11-20 09:53:00
1:53 AM,10.0,-6.0,48,30.08,10.0,North,8.1,-,N/A,,Overcast,10,2013-11-20 10:53:00
3:53 AM,10.0,-5.1,51,30.08,10.0,NNE,5.8,16.1,N/A,,Overcast,20,2013-11-20 12:53:00
4:53 AM,10.0,-8.0,44,30.08,10.0,NNE,5.8,16.1,N/A,,Overcast,30,2013-11-20 13:53:00
5:53 AM,10.0,-8.0,44,30.10,10.0,NNE,16.1,26.5,N/A,,Overcast,20,2013-11-20 14:53:00
6:53 AM,10.0,-7.1,46,30.12,10.0,NNE,6.9,18.4,N/A,,Overcast,30,2013-11-20 15:53:00
7:53 AM,10.0,-9.0,42,30.14,10.0,NE,17.3,23.0,N/A,,Overcast,40,2013-11-20 16:53:00
8:53 AM,10.0,-9.9,40,30.17,10.0,NE,16.1,23.0,N/A,,Overcast,50,2013-11-20 17:53:00
9:53 AM,10.0,-9.9,40,30.18,10.0,NE,15.0,25.3,N/A,,Overcast,50,2013-11-20 18:53:00
10:53 AM,10.0,-9.9,40,30.19,10.0,NE,18.4,27.6,N/A,,Overcast,50,2013-11-20 19:53:00
11:53 AM,10.9,-9.9,39,30.21,10.0,NE,17.3,29.9,N/A,,Overcast,50,2013-11-20 20:53:00
12:53 PM,10.9,-8.0,42,30.22,10.0,NE,19.6,28.8,N/A,,Overcast,50,2013-11-20 21:53:00
1:53 PM,10.9,-9.0,40,30.25,10.0,NE,15.0,26.5,N/A,,Overcast,50,2013-11-20 22:53:00
2:53 PM,10.9,-8.0,42,30.26,10.0,NE,17.3,25.3,N/A,,Overcast,50,2013-11-20 23:53:00
3:53 PM,10.9,-5.1,49,30.30,10.0,NE,11.5,24.2,N/A,,Overcast,40,2013-11-21 00:53:00
4:53 PM,12.0,-8.0,41,30.32,10.0,NE,10.4,24.2,N/A,,Overcast,50,2013-11-21 01:53:00
5:53 PM,12.0,-7.1,42,30.34,10.0,NNE,17.3,21.9,N/A,,Overcast,30,2013-11-21 02:53:00
6:53 PM,12.0,-8.0,41,30.36,10.0,NNE,10.4,17.3,N/A,,Overcast,30,2013-11-21 03:53:00
7:53 PM,12.0,-8.0,41,30.37,10.0,NNE,12.7,18.4,N/A,,Overcast,20,2013-11-21 04:53:00
8:53 PM,12.0,-7.1,42,30.38,10.0,NNE,13.8,25.3,N/A,,Overcast,20,2013-11-21 05:53:00
9:53 PM,12.0,-7.1,42,30.38,10.0,NNE,10.4,23.0,N/A,,Overcast,20,2013-11-21 06:53:00
10:53 PM,12.0,-6.0,44,30.38,10.0,NNE,15.0,25.3,0.00,,Overcast,30,2013-11-21 07:53:00
11:53 PM,12.0,-5.1,46,30.36,10.0,North,15.0,26.5,N/A,,Overcast,10,2013-11-21 08:53:00